Starlink 1625

operational
NORAD ID: 46131 Int'l Des: 2020-057 Owner: SPXS Country: US Constellation: starlink
LEOCIRCULARSTARLINK_TYPE

Über Starlink 1625

Beschreibung wird geladen...

Live-Position

3D-Globus wird geladen...

Nächste Überflüge

Höhenverlauf

Altitude vs Time

uPlot chart will show altitude changes over time

Zweizeiliger Elementsatz

1 46131U 20057Q 25258.01187452 .00002117 00000-0 16093-3 0 9992
2 46131 53.0550 5.2650 0001276 83.3381 276.7754 15.06407445281123
Epoch: 15. Sept. 2025 • Age: 21 hours

Aktueller Status

Höhe 547.8 km
Geschwindigkeit 7.59 km/s
Subsatellitenpunkt 1.72°N, 52.69°E
Startdatum 18. Aug. 2020
Alter 5 years
Typ internet

Technische Details

Klassifizierung Payload
Masse 260.00 kg
Trockenmasse 248.00 kg
Gesamtmasse 260.00 kg
Länge 0.20 m
Durchmesser 2.80 m
Spannweite 9.00 m
Form Box + pan
Hersteller SPXS
Bus-Typ Starlink
Phasenstatus In Orbit
Besitzer/Staat SPXS/US

Große Konstellationen

Loading constellations...